{"data":{"norad_id":55419,"epoch":"2026-09-20T22:00:03.000096Z","epoch_age_seconds":60572,"freshness":"FRESH","line1":"1 55419U 23014AE  26263.91670139  .00083690  00000+0  58751-2 0  9992","line2":"2 55419  70.0007 312.0961 0000834 216.6910 315.9736 15.04669802  5710","mean_motion":15.04669802,"eccentricity":8.34e-5,"inclination_deg":70.0007,"raan_deg":312.0961,"arg_perigee_deg":216.691,"mean_anomaly_deg":315.9736,"bstar":0.0058751,"rev_number":571,"period_min":95.702060218525,"perigee_km":551.94142956891,"apogee_km":553.09746306415,"semimajor_km":6930.6564463165,"source":"CELESTRAK","updated_at":"2026-09-21T09:00:33.218967Z"}}